This is the latest recevied weather packets stored in our database for station/object K7DC. If no packets are shown the sender has not sent any weather packets the latest 10 day(s).
| Time | Temp. | Humidity | Pressure | Rain* | Wind** | Luminosity | Snow |
|---|---|---|---|---|---|---|---|
| 1777838554 | 30.56° C | 21% | 1012.1 hPa | 0 mm | - | 493 W/m² | - |
| 1777838251 | 30.56° C | 22% | 1012.2 hPa | 0 mm | - | 474 W/m² | - |
| 1777837948 | 30.56° C | 22% | 1012.1 hPa | 0 mm | - | 489 W/m² | - |
| 1777837646 | 30.56° C | 24% | 1012.6 hPa | 0 mm | - | 438 W/m² | - |
| 1777837341 | 30.56° C | 23% | 1012.4 hPa | 0 mm | - | 559 W/m² | - |
| 1777837037 | 30.56° C | 24% | 1012.5 hPa | 0 mm | - | 665 W/m² | - |
| 1777836734 | 30.56° C | 24% | 1012.7 hPa | 0 mm | - | 708 W/m² | - |
| 1777836429 | 29.44° C | 26% | 1012.6 hPa | 0 mm | - | 688 W/m² | - |
| 1777836125 | 29.44° C | 26% | 1012.9 hPa | 0 mm | - | 497 W/m² | - |
| 1777835821 | 28.89° C | 27% | 1013.3 hPa | 0 mm | - | 512 W/m² | - |
| 1777835519 | 29.44° C | 26% | 1013.1 hPa | 0 mm | - | 514 W/m² | - |
| 1777835215 | 29.44° C | 25% | 1013.3 hPa | 0 mm | - | 647 W/m² | - |
| 1777834912 | 29.44° C | 25% | 1013.4 hPa | 0 mm | - | 798 W/m² | - |
| 1777834609 | 29.44° C | 26% | 1013.4 hPa | 0 mm | - | 694 W/m² | - |
| 1777834304 | 29.44° C | 26% | 1013.4 hPa | 0 mm | - | 549 W/m² | - |
| 1777833999 | 28.33° C | 27% | 1013.4 hPa | 0 mm | - | 530 W/m² | - |
| 1777833696 | 28.33° C | 27% | 1013.7 hPa | 0 mm | - | 459 W/m² | - |
| 1777833392 | 27.78° C | 29% | 1013.9 hPa | 0 mm | - | 431 W/m² | - |
| 1777833090 | 27.22° C | 30% | 1013.9 hPa | 0 mm | - | 368 W/m² | - |
| 1777832788 | 27.78° C | 30% | 1014 hPa | 0 mm | - | 409 W/m² | - |
| 1777832486 | 27.78° C | 29% | 1014.3 hPa | 0 mm | - | 480 W/m² | - |
| 1777832183 | 27.78° C | 30% | 1014.5 hPa | 0 mm | - | 399 W/m² | - |
| 1777831880 | 27.78° C | 31% | 1014.4 hPa | 0 mm | - | 354 W/m² | - |
| 1777831577 | 27.22° C | 31% | 1014.6 hPa | 0 mm | - | 341 W/m² | - |
| 1777831275 | 26.67° C | 31% | 1014.5 hPa | 0 mm | - | 361 W/m² | - |
* Rain latest hour (hover to see other rain measurements)
** Current wind speed in m/s (hover to see current wind gust speed)